Погода в Черепове

Россия / Смоленская область     54°15′13″N   32°15′02″E
темп.,
°C
ветер,
м/с
пор.,
м/с
влажн.,
%
обл.,
%
осадки,
мм/ч
давл.,
гПа
погр.,
м
27 октября, ср
ср2700:00+4ююз61460100 0.0 1020392
03:00+4ююз61363100 0.0 1019318
06:00+3юз61366100 0.0 1018366
09:00+4юз61369100 0.0 1017428
12:00+5зюз51282100 0.1 1017483
15:00+8з5118467 0.2 1018703
18:00+7з497393 0.0 1018301
21:00+5юз4118988 0.0 1018261
28 октября, чт
чт2800:00+5юз51292100 0.0 1017311
03:00+7юз71595100 1.2 1015572
06:00+8зюз71595100 1.1 1013677
09:00+9з71492100 3.1 1014730
12:00+11зсз71287100 0.1 1015816
15:00+12зсз611751 0.2 10161047
18:00+8ссз6117892 0.1 1020445
21:00+8с597876 0.1 1022541
29 октября, пт
пт2900:00+7сз2484100 0.0 1024119
03:00+7с238297 0.0 102675
06:00+5св11946 0.0 102711
09:00+5юв239612 0.0 102994
12:00+9ю33775 0.0 1029452
15:00+10ююз33675 0.0 1029594
18:00+7ююз348367 0.0 103049
21:00+6ююз359092 0.0 103087
30 октября, сб
сб3000:00+5ю389214 0.0 1030141
03:00+4ю38935 0.0 1031144
06:00+3ю37945 0.0 1030138
09:00+3ю499229 0.0 1031213
12:00+8ю58735 0.0 1030432
15:00+10ю510715 0.0 1029601
18:00+6ю411895 0.0 1028261
21:00+6ю5139138 0.0 1028307
31 октября, вс
вс3100:00+6ю513915 0.0 1029291
03:00+5ю412926 0.0 1028262
06:00+4ю512925 0.0 1027248
09:00+5ю513915 0.0 1027307
12:00+10ююз7127011 0.0 1026519
15:00+11ю612637 0.0 1024679
18:00+7ю513745 0.0 1024362
21:00+6ю615750 0.0 1024390